EW1940 Weather Reports


time (UTC)temp
C
wind
direction
speed
KPH
gust
KPH
rain 1hr
cm
rain 24hr
cm
rain mn
cm
humidity
%
barometer
mb
20260505153017 17 338 3.2 6.4 0.00 0.00 0.00 65 1011.2
20260505152016 17 23 6.4 16.1 0.00 0.00 0.00 66 1011.2
20260505151017 17 0 6.4 12.9 0.00 0.00 0.00 65 1011.2
20260505125018 16 23 4.8 12.9 0.00 0.00 0.00 64 1011.8
20260505124036 16 23 4.8 14.5 0.00 0.00 0.00 64 1011.9
20260505123018 16 23 8.0 16.1 0.00 0.00 0.00 64 1011.9
20260505122018 16 23 6.4 16.1 0.00 0.00 0.00 64 1011.9
20260505121018 16 0 4.8 12.9 0.00 0.00 0.00 65 1011.9
20260505120016 16 0 6.4 14.5 0.00 0.00 0.00 64 1011.9
20260505115038 16 23 8.0 14.5 0.00 0.00 0.00 64 1011.9
20260505114017 17 23 9.7 17.7 0.00 0.00 0.00 62 1012.0
20260505113017 17 23 11.3 19.3 0.00 0.00 0.00 63 1012.0
20260505112016 17 23 8.0 17.7 0.00 0.00 0.00 61 1012.0
20260505111016 17 45 9.7 19.3 0.00 0.00 0.00 62 1012.1
20260505102016 17 338 8.0 20.9 0.00 0.00 0.00 61 1012.2
20260505101016 17 45 12.9 24.1 0.00 0.00 0.00 61 1012.3
20260505100016 17 0 9.7 27.4 0.00 0.00 0.00 63 1012.2
20260505095016 16 23 9.7 22.5 0.00 0.00 0.00 68 1012.3
20260505094016 15 23 11.3 29.0 0.00 0.00 0.00 69 1012.3
20260505093016 15 23 9.7 17.7 0.00 0.00 0.00 70 1012.4
20260505092018 15 45 9.7 17.7 0.00 0.00 0.00 70 1012.4
20260505091016 15 23 9.7 19.3 0.00 0.00 0.00 70 1012.5
20260505090016 15 23 8.0 17.7 0.00 0.00 0.00 69 1012.5
20260505085037 15 23 9.7 22.5 0.00 0.00 0.00 71 1012.5
20260505084038 15 23 8.0 16.1 0.00 0.00 0.00 71 1012.6
20260505083016 15 45 9.7 19.3 0.00 0.00 0.00 70 1012.6
20260505082036 15 45 8.0 16.1 0.00 0.00 0.00 70 1012.6
20260505081016 15 23 8.0 16.1 0.00 0.00 0.00 72 1012.5
20260505080017 15 0 4.8 16.1 0.00 0.00 0.00 73 1012.5
20260505075016 15 45 8.0 16.1 0.00 0.00 0.00 74 1012.5
20260505074016 14 45 9.7 20.9 0.00 0.00 0.00 75 1012.5
20260505073017 14 45 8.0 19.3 0.00 0.00 0.00 80 1012.5
20260505072016 13 45 6.4 16.1 0.00 0.00 0.00 85 1012.6
20260505071036 13 45 6.4 12.9 0.00 0.00 0.00 86 1012.5
20260505070016 13 45 4.8 14.5 0.00 0.00 0.00 87 1012.6
20260505065017 13 0 4.8 12.9 0.00 0.00 0.00 87 1012.7
20260505064016 12 0 3.2 11.3 0.00 0.00 0.00 88 1012.8
20260505063016 12 23 4.8 12.9 0.00 0.00 0.00 88 1012.9
20260505062017 12 23 3.2 8.0 0.00 0.00 0.00 88 1012.8
20260505061019 12 45 4.8 8.0 0.00 0.00 0.00 89 1012.7
20260505060017 12 23 1.6 4.8 0.00 0.00 0.00 89 1012.8
20260505055017 12 45 1.6 6.4 0.00 0.00 0.00 89 1012.7
20260505054016 12 0.0 3.2 0.00 0.00 0.00 89 1012.7
20260505053057 12 23 1.6 6.4 0.00 0.00 0.00 89 1012.7
20260505052016 12 23 1.6 4.8 0.00 0.00 0.00 89 1012.6
20260505051017 12 23 1.6 6.4 0.00 0.00 0.00 89 1012.6
20260505041017 12 45 3.2 11.3 0.00 0.00 0.00 90 1012.7
20260505040017 12 45 1.6 3.2 0.00 0.00 0.00 90 1012.7
20260505035015 12 45 3.2 8.0 0.00 0.00 0.00 90 1012.8
20260505034016 12 45 1.6 6.4 0.00 0.00 0.00 90 1012.9
20260505033017 12 68 1.6 4.8 0.00 0.00 0.00 90 1013.0
20260505032036 12 45 1.6 4.8 0.00 0.00 0.00 90 1013.0
20260505031015 12 113 1.6 3.2 0.00 0.00 0.00 90 1013.1
20260505030036 12 113 1.6 3.2 0.00 0.00 0.00 90 1013.0
20260505025015 12 0.0 3.2 0.00 0.00 0.00 90 1013.0
20260505024017 13 113 1.6 4.8 0.00 0.00 0.00 90 1013.1
20260505023015 13 113 3.2 4.8 0.00 0.00 0.00 90 1013.0
20260505022015 13 113 1.6 4.8 0.00 0.00 0.00 90 1013.1
20260505021015 13 90 1.6 4.8 0.00 0.00 0.00 90 1013.1
20260505020015 13 0.0 0.0 0.00 0.00 0.00 90 1013.2
20260505015015 13 45 1.6 4.8 0.00 0.00 0.00 90 1013.2
20260505014015 13 68 1.6 6.4 0.00 0.00 0.00 91 1013.4
20260505013017 13 45 3.2 6.4 0.00 0.00 0.00 91 1013.4
20260505012015 12 45 1.6 6.4 0.00 0.00 0.00 91 1013.4
20260505011017 12 0.0 0.0 0.00 0.00 0.00 91 1013.4
20260505010017 12 0.0 0.0 0.00 0.00 0.00 91 1013.5
20260505005017 12 0.0 0.0 0.00 0.00 0.00 90 1013.4
20260505004017 12 0.0 0.0 0.00 0.00 0.00 90 1013.7
20260505003017 12 0.0 0.0 0.00 0.00 0.00 90 1013.8
20260505002017 13 0.0 0.0 0.00 0.00 0.00 90 1013.9
20260505001017 13 0.0 0.0 0.00 0.00 0.00 90 1013.6
20260505000019 13 0.0 0.0 0.00 0.00 0.00 90 1013.8
20260504235017 13 0.0 0.0 0.00 0.00 0.00 90 1013.9
20260504234019 13 0.0 0.0 0.00 0.00 0.00 90 1013.9
20260504233017 13 0.0 0.0 0.00 0.00 0.00 90 1014.0
20260504232017 13 0.0 0.0 0.00 0.00 0.00 90 1013.9
20260504231017 13 0.0 0.0 0.00 0.00 0.00 90 1013.8
20260504230017 13 0.0 0.0 0.00 0.00 0.00 90 1013.9
20260504225018 13 0.0 0.0 0.00 0.00 0.00 89 1013.9
20260504224037 13 0.0 0.0 0.00 0.00 0.00 89 1014.0
20260504223017 13 0.0 0.0 0.00 0.00 0.00 89 1013.9
20260504222038 13 0.0 0.0 0.00 0.00 0.00 89 1014.0
20260504221018 13 0.0 0.0 0.00 0.00 0.00 89 1014.1
20260504220020 13 0.0 0.0 0.00 0.00 0.00 88 1014.1
20260504215017 13 0.0 0.0 0.00 0.00 0.00 88 1014.1
20260504214018 13 0.0 0.0 0.00 0.00 0.00 88 1014.1
20260504213018 13 0.0 0.0 0.00 0.00 0.00 88 1014.2
20260504212017 13 0.0 0.0 0.00 0.00 0.00 87 1014.2
20260504211037 13 0.0 0.0 0.00 0.00 0.00 87 1014.1
20260504210019 13 135 1.6 4.8 0.00 0.00 0.00 86 1014.2
20260504205017 13 0.0 1.6 0.00 0.00 0.00 85 1014.1
20260504204018 13 0.0 1.6 0.00 0.00 0.00 85 1014.1
20260504203017 14 0.0 0.0 0.00 0.00 0.00 85 1014.1
20260504202017 14 0.0 0.0 0.00 0.00 0.00 84 1014.2
20260504201017 14 0.0 1.6 0.00 0.00 0.00 84 1014.1
20260504200018 14 0.0 0.0 0.00 0.00 0.00 84 1013.9
20260504195017 14 0.0 1.6 0.00 0.00 0.00 84 1013.9
20260504194017 14 0.0 1.6 0.00 0.00 0.00 84 1013.9
20260504193018 14 203 1.6 4.8 0.00 0.00 0.00 83 1013.8
20260504192018 14 0.0 0.0 0.00 0.00 0.00 83 1013.8
20260504191016 15 180 1.6 4.8 0.00 0.00 0.00 83 1013.7
20260504190037 15 203 3.2 6.4 0.00 0.00 0.00 83 1013.6
20260504185017 15 225 4.8 9.7 0.00 0.00 0.00 82 1013.7
20260504184016 15 203 4.8 6.4 0.00 0.00 0.00 82 1013.6
20260504183016 15 248 3.2 6.4 0.00 0.00 0.00 81 1013.5
20260504182017 16 180 1.6 4.8 0.00 0.00 0.00 80 1013.5
20260504181018 16 225 3.2 4.8 0.00 0.00 0.00 80 1013.4
20260504180018 16 225 3.2 6.4 0.00 0.00 0.00 80 1013.4
20260504175017 16 248 4.8 9.7 0.00 0.00 0.00 79 1013.4
20260504174018 16 225 3.2 8.0 0.00 0.00 0.00 78 1013.3
20260504173018 16 225 3.2 8.0 0.00 0.00 0.00 78 1013.4
20260504172017 17 203 3.2 6.4 0.00 0.00 0.00 77 1013.3
20260504171016 17 225 3.2 8.0 0.00 0.00 0.00 75 1013.2